Meteo Giornale » Osservazioni meteo Stati Uniti (USA) » New York City Central Park

ore: 11:51 - Osservazioni Meteo New York City Central Park
Lat. 40° 47' N Lon. 73° 58' W Alt. 47 metri s.l.m.

molto_nuvoloso America/New_York

23 °C

Molto Nuvoloso

Temp. 24 Ore

17 °C

24 °C

Nord

9.3 Km/h

Dew point 14 °C

Umidità 56 %

Visibilità  10 Km

Il sole sorge alle ore 05:52

Il sole tramonta alle ore 20:11

Data e Ora Cielo e Fenomeni T °C DP °C Um. % Pres. hPa Vis. km Vento km/h
Oggi h: 11:51 molto_nuvoloso Molto Nuvoloso 23 14 56 1015 10 N 9.3
Oggi h: 10:51 nuvoloso Nuvoloso 22 14 60 1015 10 N 13
Oggi h: 09:51 nuvoloso Nuvoloso 21 14 64 1014 10 N 7.4
Oggi h: 08:51 sereno Sereno 19 14 72 1014 10 N 7.4
Oggi h: 07:51 sereno Sereno 18 14 77 1014 10 O/NO 9.3
Oggi h: 06:51 sereno Sereno 17 14 82 1013 10 O/NO 7.4
Oggi h: 06:27 nuvoloso Nuvoloso 17 14 82 1013 10 N 7.4
Oggi h: 05:51 coperto Coperto 17 14 82 1013 10 N 7.4
Oggi h: 05:41 coperto Coperto 17 14 82 1013 10 N 5.5
Oggi h: 05:26 molto_nuvoloso Molto Nuvoloso 17 14 82 1012 10 N 9.3
Oggi h: 04:51 sereno Sereno 17 14 82 1012 10 O/NO 13
Oggi h: 03:51 sereno Sereno 18 15 82 1011 10 N 7.4
Oggi h: 03:24 nuvoloso Nuvoloso 19 17 88 1011 10 N 9.3
Oggi h: 03:13 molto_nuvoloso Molto Nuvoloso 19 17 88 1011 10 O/NO 7.4
Oggi h: 02:51 molto_nuvoloso Molto Nuvoloso 19 18 93 1011 10 O/NO 11.1
Oggi h: 02:32 coperto Coperto 20 18 88 1011 10 NO 11.1
Oggi h: 02:10 coperto Coperto 20 18 88 1011 13 O/NO 11.1
Oggi h: 01:59 coperto Coperto 20 18 88 1011 11 N 7.4
Oggi h: 01:51 coperto Coperto 20 18 88 1011 11 N 0
Oggi h: 01:30 coperto Coperto 20 18 88 1011 10 N 5.5
Oggi h: 00:51 poco_nuvoloso Poco Nuvoloso 19 17 88 1011 10 N 0
Ieri h: 23:51 molto_nuvoloso Molto Nuvoloso 19 18 93 1011 14 N 0
Ieri h: 23:21 nuvoloso Nuvoloso 19 18 93 1011 10 N 0
Ieri h: 22:51 coperto Coperto 20 18 88 1011 10 N 0
Ieri h: 21:51 coperto_pioggia Pioggia Debole Foschia 20 18 88 1012 6 N 5.5
Ieri h: 21:17 coperto_pioggia Pioggia Debole 20 18 88 1012 10 N 0
Ieri h: 20:51 coperto Coperto 19 17 88 1011 10 N 5.5
Ieri h: 19:51 coperto Coperto 22 16 68 1011 10 N 0
Ieri h: 18:51 coperto Coperto 23 15 60 1011 10 N 0
Ieri h: 17:51 molto_nuvoloso Molto Nuvoloso 23 16 64 1011 10 N 0
Ieri h: 16:51 coperto Coperto 23 16 64 1011 10 N 0
Ieri h: 15:51 coperto Coperto 23 16 64 1011 10 N 0
Ieri h: 14:51 coperto Coperto 23 17 68 1012 10 N 9.3
Ieri h: 13:51 coperto Coperto 23 17 68 1013 10 N 7.4
Ieri h: 12:51 nuvoloso Nuvoloso 24 16 60 1013 10 N 9.3